map of MAQ home
MAQ - Airport
Location
City:  Mae Sot, Tak, Thailand
ICAO:VTPM
IATA:MAQ

Details
Type:Airport (Aerodrome, Airfield)
Latitude:16°41'59"N (16.699856)
Longitude:98°32'42"E (98.545056)
Datum:WGS 1984
Elevation:690 ft (210 m)
Variation:0.65°W (WMM2015 magnetic declination)
0.02° annual change
Runways:1
Longest:4921 × 98 ft (1500 × 30 m), paved

Time
Time Zone:UTC+7
Local Time:

Weather
METAR:VTPM 150600Z 04010KT 350V070 9999 FEW030 29/16 Q1016 NOSIG
TAF:VTPM 150500Z 1506/1606 07005KT 9999 FEW030

Related Locations
Nearby:
Farthest:PIO: 12040 mi / 19376 km
Pisco [Capitán FAP Renán Elías Olivera Airport], ICA, PE

Find:

   beyond  
but within

Other Information
Maps:
NOTAMs:
Links:
Sources:

  
  • flag of Thailand
  

Sectional Chart

Flight Planning
at skyvector.com

Satellite Image

Google Maps Satellite view

 

Copyright © 2004-2018 Karl L. Swartz. All rights reserved.
The Great Circle Mapper name and logo are trademarks of the Great Circle Mapper.
All other trademarks mentioned herein belong to their respective owners.
Please see credits for attibutions and further copyright information.

  Follow gcmap on Facebook Follow gcmap on Twitter Follow gcmap on Google+ GCmap on LinkedIn

hCard Microformat

Geo Microformat